Theta_e
317 318 318 318 318 318 318 318 318 318 318 319 318 318 318 317 318 317 317 318 318 319 321 323 327 331 332 332 333 333 334 334 334 333 332 332 333 333 333 332 331 331 330 328 325 322 320 318 316 314 314 315 316 317 318 320 323 324 325 325 324 322 322 320 318 324 331 332 332 332 332 332 333 334 334 334 334 333 331 331 332 331 330 329 329
317 318 317 318 317 317 317 317 317 317 316 317 318 318 317 317 317 317 317 317 317 319 320 321 323 328 331 332 332 332 332 332 333 332 330 329 329 329 330 331 330 331 331 331 329 326 323 321 319 317 315 315 316 318 319 321 324 326 327 328 328 326 324 322 320 323 329 332 332 332 332 332 333 333 334 334 334 333 332 332 332 332 331 330 330
316 316 316 315 315 315 315 315 314 314 314 315 316 317 317 317 317 317 317 317 317 318 319 320 321 324 328 330 331 331 331 331 332 332 330 328 326 325 326 327 329 330 330 331 331 330 328 325 323 321 318 316 316 317 319 321 324 326 328 329 329 329 326 323 322 324 327 330 332 332 332 333 333 333 333 333 333 333 333 332 332 331 331 331 330
313 313 313 313 312 312 312 312 311 311 312 312 313 314 315 316 316 315 316 316 317 317 318 319 320 320 323 327 329 330 331 332 332 332 331 329 327 326 325 325 326 326 327 330 332 331 332 331 329 326 323 320 318 318 319 322 325 326 328 328 328 329 328 325 324 326 326 329 331 332 332 333 333 333 332 332 332 332 332 332 331 331 331 331 330
312 312 312 311 311 311 311 311 310 310 310 310 310 311 312 312 313 313 314 315 316 317 317 318 318 319 319 322 326 329 331 331 331 332 331 331 329 328 328 326 324 324 326 329 330 331 331 332 331 330 329 328 325 322 321 321 324 326 327 327 327 328 329 328 326 327 327 328 330 331 333 333 333 332 332 332 332 331 331 331 330 330 330 330 330
312 311 311 312 311 311 311 310 310 309 308 308 309 309 310 310 310 311 312 312 314 316 317 317 317 318 318 319 321 326 328 329 330 331 331 331 331 329 329 328 326 325 327 328 329 329 329 330 331 332 332 332 330 328 325 323 324 325 326 327 328 328 330 330 329 327 328 328 329 330 332 332 332 332 332 332 331 331 331 330 330 330 330 330 330
312 312 312 312 311 310 310 309 308 308 308 308 309 309 310 310 310 310 310 310 311 313 316 317 318 318 318 318 319 322 326 326 328 330 331 331 331 330 329 329 329 327 328 329 328 327 328 328 330 332 333 333 332 331 330 329 328 328 327 328 329 330 330 330 330 329 329 330 330 330 332 332 332 332 332 332 331 331 331 331 331 330 330 330 330
312 313 312 311 311 310 309 309 309 308 307 307 308 308 310 311 311 310 310 310 310 311 314 316 317 318 318 318 319 320 323 325 326 328 330 330 330 330 329 328 330 330 329 330 329 327 326 327 328 330 332 333 333 332 332 333 333 332 331 330 330 330 330 330 330 330 330 331 331 331 332 333 332 332 332 332 332 332 331 331 331 331 331 331 331
313 312 312 311 310 310 309 309 309 307 305 305 306 307 309 311 311 311 311 310 310 311 313 314 316 317 318 318 318 319 321 324 326 327 329 328 328 329 329 329 329 330 331 331 330 328 326 326 327 328 329 331 331 331 332 333 334 333 332 331 331 330 330 330 330 330 331 332 331 331 332 333 333 333 332 332 332 332 332 332 331 331 331 331 331
312 312 311 311 310 309 309 309 308 307 305 305 306 307 308 309 311 311 311 311 310 311 312 313 315 316 317 318 318 318 319 322 324 326 328 328 327 327 329 330 330 331 331 332 332 330 328 328 328 328 329 329 329 329 331 333 333 333 331 330 330 330 331 330 330 330 331 332 332 332 332 333 333 333 332 332 332 332 332 332 332 332 332 331 331
312 311 311 310 310 309 309 309 308 306 305 306 306 306 307 308 309 310 311 311 310 311 312 313 314 315 316 317 318 318 318 320 321 322 326 328 328 327 328 330 331 332 332 333 331 329 329 329 329 330 330 329 329 330 332 333 333 331 329 328 329 330 330 330 330 329 330 332 333 333 333 333 333 333 333 332 332 332 332 332 332 332 332 332 331
312 311 310 310 310 309 309 308 307 306 305 306 306 306 307 309 310 310 311 310 310 311 312 313 315 315 316 316 317 317 318 320 320 321 324 326 328 328 328 329 330 331 332 332 330 328 328 329 329 330 331 330 330 330 331 332 332 331 328 328 328 329 330 330 330 331 331 331 333 334 334 334 334 333 333 333 332 332 332 332 332 332 332 331 331
311 310 310 310 310 309 309 308 307 306 305 306 306 307 308 309 310 311 311 311 310 311 313 315 316 316 316 316 316 316 317 319 321 321 323 325 327 329 329 329 330 331 332 332 331 329 328 329 331 332 332 331 330 330 330 329 331 331 330 329 329 329 329 330 330 331 332 332 332 334 334 334 334 334 333 332 332 332 332 331 331 332 332 331 331
311 310 310 310 309 309 308 307 307 305 305 306 307 308 308 309 311 312 312 311 311 313 315 316 317 316 317 317 316 316 316 318 320 320 322 324 327 328 329 330 330 331 332 332 331 330 329 330 331 332 332 332 331 330 329 329 330 331 331 330 330 329 329 329 329 329 331 332 332 333 334 334 334 334 333 333 332 332 332 332 331 331 331 331 332
310 310 310 310 309 309 308 307 307 306 305 306 307 306 306 308 311 312 312 312 312 315 317 316 317 318 318 319 318 317 317 318 319 319 320 323 325 327 328 329 330 331 331 331 331 330 330 329 331 332 332 333 332 330 329 329 329 330 330 330 330 329 330 330 329 328 328 330 331 332 332 333 333 333 333 333 333 333 333 332 332 331 332 332 331
310 310 311 310 309 309 307 307 307 306 306 306 307 306 305 306 310 312 312 313 314 316 317 317 318 318 319 319 319 319 318 317 318 317 318 320 322 325 326 327 328 330 330 329 328 329 329 329 330 330 331 332 333 332 331 330 330 329 329 330 330 330 330 331 330 329 329 330 331 331 331 332 333 333 333 333 334 333 334 333 332 332 332 332 332
310 311 311 310 309 308 307 307 308 307 306 307 306 306 305 304 308 311 312 314 315 316 317 318 318 318 318 319 319 319 319 318 317 318 318 319 321 323 325 326 327 327 328 328 327 326 327 327 328 328 329 330 332 332 331 331 330 329 329 330 331 332 332 333 332 332 332 332 332 331 331 332 333 334 334 334 334 334 334 333 333 333 333 333 332
310 311 311 310 309 308 308 308 308 307 306 307 306 307 306 303 305 310 313 314 315 315 316 318 319 319 318 319 319 318 318 318 318 318 319 320 321 321 322 325 326 327 327 327 326 325 324 325 325 326 327 329 330 331 330 330 331 331 331 331 330 330 332 332 333 333 333 334 333 332 332 332 333 334 333 333 333 334 333 333 333 333 333 333 332
310 311 311 310 308 307 308 308 307 307 306 307 307 307 307 303 304 309 312 314 315 315 315 316 318 318 319 319 319 318 318 318 317 317 317 319 321 322 322 323 324 326 327 327 326 325 324 323 324 325 327 328 330 330 330 330 331 331 332 332 330 329 329 330 331 332 332 333 334 333 333 333 333 333 333 332 332 333 333 333 333 333 333 333 333
311 311 310 309 308 307 308 307 307 306 305 306 307 307 307 304 304 308 311 313 315 315 316 316 316 317 318 318 318 318 318 317 317 317 316 316 318 321 323 323 324 325 327 328 328 326 325 323 323 325 328 330 330 329 329 329 329 330 331 331 331 330 328 328 329 330 331 332 332 333 333 333 333 333 333 333 333 333 333 333 334 334 333 333 333
311 311 310 309 308 308 308 307 307 306 305 306 306 306 307 305 304 308 310 312 314 315 316 317 316 316 317 317 317 317 317 317 316 316 316 315 315 316 319 322 324 325 325 326 326 327 327 326 324 325 327 328 328 328 328 328 329 329 330 330 330 330 328 326 326 327 329 330 330 330 330 330 331 332 332 332 333 333 333 333 333 334 334 333 333
310 310 309 308 308 308 308 308 307 306 306 306 306 306 306 305 304 308 309 310 313 315 315 316 317 317 316 316 317 316 316 316 316 316 315 315 315 315 315 318 322 324 325 325 325 326 327 328 328 327 327 327 326 326 327 328 328 328 329 330 330 330 330 328 327 326 327 328 328 328 329 329 330 331 332 331 331 332 333 334 333 333 334 334 333
310 310 309 308 308 308 308 307 306 306 306 306 306 305 306 305 304 307 309 309 310 313 315 316 316 316 317 317 317 317 316 316 316 316 316 315 315 315 314 315 317 320 323 324 325 325 326 327 328 328 329 328 328 327 328 329 329 329 330 331 331 330 329 328 328 327 326 326 326 326 327 328 330 332 332 331 330 331 333 334 334 333 333 333 334
310 310 308 308 308 308 308 307 306 307 306 306 305 305 305 304 303 305 309 309 309 311 313 315 316 316 316 317 317 317 316 316 316 315 315 315 315 315 314 314 315 317 319 322 323 324 325 325 326 327 328 329 329 329 330 330 330 330 331 332 331 330 329 328 327 326 325 325 325 325 325 327 330 331 330 329 330 331 332 333 334 333 333 333 333
310 309 308 308 308 308 308 307 306 307 306 305 305 305 304 303 301 303 308 308 308 309 311 313 315 315 316 316 317 317 317 316 316 315 315 315 315 315 315 314 315 316 318 320 321 321 322 323 324 325 326 327 329 329 330 330 330 330 331 331 331 331 330 329 328 326 325 326 326 326 326 328 331 332 331 330 331 331 331 332 333 334 333 332 333
309 308 308 308 308 308 307 307 307 306 306 305 305 304 303 301 299 302 307 308 307 308 310 311 313 314 314 315 316 317 318 317 317 317 316 317 316 316 315 315 317 318 318 318 319 319 320 321 322 323 324 326 328 329 330 330 329 330 330 330 330 330 330 330 329 328 328 328 328 328 328 330 332 333 333 333 332 331 331 332 333 333 333 332 332
309 308 308 308 308 308 307 307 307 306 306 305 304 303 301 300 298 300 306 308 306 307 310 310 311 312 313 313 315 316 317 317 317 318 318 318 318 318 317 316 317 319 320 320 319 319 319 320 320 322 324 326 327 328 328 328 328 328 328 328 329 330 330 330 329 329 329 329 329 330 331 332 333 333 333 334 333 333 333 333 333 333 332 332 333
309 308 308 308 308 308 307 307 306 306 306 305 304 303 301 299 299 300 305 308 306 306 309 310 310 311 311 312 313 314 316 317 317 318 317 318 319 320 320 319 318 319 319 320 321 321 321 321 322 323 324 325 326 326 326 326 326 326 327 327 328 328 329 330 330 330 330 329 328 328 329 331 332 333 333 332 332 332 333 334 334 333 333 333 334
308 308 308 308 308 307 307 307 306 306 305 304 303 302 300 299 299 300 304 307 306 306 309 310 310 310 311 312 312 313 314 315 316 317 317 317 317 318 319 320 320 319 320 320 320 321 322 322 323 324 324 324 324 324 324 324 325 325 325 325 326 327 329 330 330 330 330 329 328 327 327 328 330 331 332 332 331 331 332 333 333 333 333 334 334
309 308 308 308 308 307 307 306 306 305 304 303 302 301 299 299 299 300 303 305 305 305 308 310 309 310 311 312 313 313 314 315 315 316 316 316 316 316 317 317 317 318 319 320 320 321 321 321 322 323 323 323 322 322 322 323 324 324 324 325 325 326 327 329 329 330 330 329 328 327 327 327 328 330 331 332 332 332 332 332 331 331 332 332 333
308 307 307 308 307 307 307 306 306 305 304 303 302 300 299 299 299 299 301 303 304 304 306 309 309 309 310 311 313 314 314 315 315 315 316 316 316 316 315 315 315 316 317 319 320 321 321 322 322 322 321 321 321 321 321 321 322 322 323 324 324 325 326 327 328 329 329 330 330 329 329 328 329 329 329 330 330 330 330 330 330 331 331 331 332
307 306 307 307 307 307 306 306 305 304 303 303 301 299 299 299 299 299 300 301 303 303 304 307 309 310 309 310 311 313 314 314 314 314 315 315 315 315 315 315 316 317 318 319 320 321 322 322 322 322 322 322 321 321 321 320 321 321 321 321 322 323 324 325 326 327 327 328 330 331 331 331 331 331 331 331 330 329 329 329 329 330 331 331 331
306 306 307 307 307 307 306 305 305 304 303 302 300 299 299 300 299 299 299 300 301 301 302 305 308 310 310 310 311 312 313 313 313 313 314 314 314 315 315 315 316 317 318 318 319 320 321 322 322 322 322 322 321 321 321 321 321 321 321 321 321 320 320 322 323 325 326 326 327 328 329 330 330 330 330 330 330 329 329 329 330 330 330 331 331
306 307 307 307 307 306 305 305 304 303 301 300 299 299 300 300 299 299 299 299 299 300 300 302 305 308 309 310 311 311 312 312 312 313 313 313 314 314 314 315 315 316 316 317 318 319 320 320 321 321 321 321 321 321 321 321 321 321 321 322 322 321 321 321 322 323 323 325 326 326 327 327 327 327 328 328 329 329 329 330 330 330 330 330 331
306 307 307 306 306 305 305 305 304 301 300 299 299 299 300 298 298 299 299 299 299 299 300 301 303 305 306 307 309 310 311 311 312 312 313 313 313 314 314 314 314 314 314 314 315 316 317 318 319 319 319 320 320 320 321 321 321 321 321 321 321 321 322 323 323 322 322 322 323 324 325 326 326 326 326 327 327 327 328 329 329 329 329 330 330
306 306 306 306 305 305 305 304 301 299 298 298 298 298 298 297 298 299 300 299 299 299 300 301 302 303 303 303 305 307 309 310 311 311 311 312 313 313 313 313 313 313 312 312 313 314 314 315 316 316 316 317 317 318 318 319 319 319 319 319 320 320 321 321 322 322 322 322 322 323 323 324 325 325 325 325 326 326 326 327 327 328 329 330 331
307 306 306 305 304 304 304 302 299 297 297 297 297 297 297 298 299 300 300 300 300 300 300 301 301 301 301 301 301 303 305 307 309 310 310 311 311 312 312 311 311 311 311 311 311 311 312 312 313 313 313 314 315 315 315 315 316 317 318 318 319 320 320 321 321 321 321 321 321 321 322 322 322 323 323 323 324 325 325 325 326 326 327 328 329
306 306 305 304 304 304 302 299 297 296 297 297 297 296 297 298 298 299 300 300 299 300 300 301 301 302 302 302 302 301 302 304 306 307 309 310 310 310 310 310 310 309 309 309 309 309 309 310 310 310 310 311 311 311 311 312 313 314 315 316 317 318 319 320 320 321 321 321 321 321 321 321 321 322 322 322 322 323 323 324 324 325 326 326 327
306 306 305 304 303 302 300 297 296 296 297 297 296 296 297 298 298 298 299 299 299 300 301 301 302 302 302 303 303 303 304 304 305 306 307 308 309 309 309 309 309 309 309 308 308 308 308 308 308 308 308 308 308 308 308 309 309 310 310 311 312 313 314 315 316 317 318 319 320 320 321 321 322 322 321 322 322 322 322 323 323 324 325 326 326
306 305 305 304 303 301 298 296 296 296 296 297 296 295 296 297 297 297 298 298 299 300 300 301 302 302 302 303 303 304 304 305 305 306 306 307 307 307 308 308 308 309 308 308 308 308 307 307 307 307 307 307 307 307 307 307 307 307 308 308 308 309 310 310 311 311 312 313 314 316 317 319 320 321 321 321 321 321 322 322 322 323 323 324 325
306 305 305 305 303 299 296 296 296 296 296 297 296 295 296 296 297 297 297 298 298 299 300 301 301 301 301 302 302 303 303 304 304 304 305 305 306 306 307 307 307 308 308 308 308 307 307 307 306 306 306 306 306 306 306 306 306 306 306 307 307 307 307 308 308 308 308 309 309 310 311 312 314 316 317 319 320 320 321 321 322 322 323 323 324
305 305 305 304 302 298 296 296 296 296 296 296 296 296 296 296 296 296 297 298 298 298 299 299 300 300 299 299 300 301 301 302 302 302 303 304 304 305 305 306 306 306 306 307 306 306 306 305 305 305 305 304 304 304 305 305 305 305 305 305 305 305 306 306 307 307 307 307 308 308 308 309 309 310 311 313 314 316 318 319 321 322 323 323 323
305 305 305 304 301 297 296 296 296 296 296 296 296 296 296 296 296 296 296 297 298 298 298 298 297 298 298 298 298 298 299 300 300 300 301 301 302 302 303 303 304 304 304 304 304 303 303 303 303 302 302 302 302 303 303 304 304 304 304 304 304 304 304 305 305 306 306 306 306 307 307 308 308 308 309 309 310 311 312 314 316 318 321 322 323
305 305 304 303 300 297 296 296 296 296 296 296 295 296 296 296 296 296 296 297 297 297 297 297 296 296 296 296 297 297 298 298 299 299 300 300 300 300 300 300 300 300 300 300 300 300 300 300 300 301 301 302 302 302 302 303 303 303 303 303 303 304 304 304 304 305 305 305 306 306 306 307 307 307 308 308 309 309 309 310 311 312 315 318 320
305 305 304 302 299 297 296 296 296 296 296 296 296 296 296 296 296 296 296 296 296 296 296 296 296 296 296 295 296 296 297 297 298 298 298 298 298 298 298 298 298 298 299 299 299 299 299 300 300 301 301 302 302 302 302 302 302 302 303 303 303 303 304 304 304 304 305 305 305 306 306 306 306 306 307 307 308 308 309 309 309 309 310 312 314
305 304 303 301 299 298 297 296 296 295 296 296 296 295 295 296 296 296 295 296 295 295 295 295 295 295 295 295 296 296 296 297 297 297 297 297 298 298 297 297 298 298 299 299 300 300 300 301 301 301 301 302 302 302 302 302 302 302 302 302 302 303 303 304 304 304 304 305 305 305 305 305 306 306 306 307 307 307 308 308 308 309 309 309 310
304 304 303 300 298 298 297 297 296 296 296 296 296 295 295 295 295 295 295 295 295 295 295 295 295 295 295 295 295 295 296 296 296 296 296 297 297 297 297 297 298 299 300 300 300 300 300 300 301 301 301 301 301 301 301 301 301 301 301 301 301 302 302 303 303 303 304 304 304 304 305 305 305 305 306 306 307 308 308 308 308 308 309 309 309
304 304 302 300 298 298 298 297 297 296 296 296 296 295 295 295 295 295 295 295 295 294 294 294 294 294 294 294 294 294 294 295 294 294 294 294 295 295 297 297 298 299 299 300 300 300 299 299 300 300 300 300 300 300 300 300 300 300 300 300 300 300 300 301 301 301 302 302 303 303 304 304 305 305 306 306 306 307 308 308 308 308 308 308 309
304 303 302 300 298 298 298 297 297 297 296 296 296 295 295 295 295 295 295 294 294 294 294 294 294 294 294 294 294 293 293 293 293 292 292 292 292 293 295 296 297 298 299 299 299 299 299 298 298 298 299 299 299 299 299 299 298 299 299 299 299 299 299 299 300 300 300 301 301 302 303 303 304 305 305 305 305 306 306 307 307 307 308 308 308
304 303 302 300 299 298 298 297 297 297 297 297 296 296 295 295 295 295 295 294 294 294 294 294 294 294 294 294 294 294 293 293 293 292 292 291 291 292 293 295 296 297 298 298 298 298 298 298 298 298 297 298 298 298 298 298 298 298 298 298 298 299 299 299 299 299 300 300 301 301 301 301 302 302 302 303 303 303 304 305 305 306 306 306 306
304 303 302 300 299 299 298 297 297 297 297 297 296 296 295 295 295 295 295 294 294 294 294 294 294 294 294 294 294 294 294 293 293 293 292 292 291 291 292 293 294 295 296 297 297 297 297 297 298 298 297 297 297 297 297 297 297 298 298 298 298 298 299 299 299 299 300 300 299 299 299 299 299 299 299 299 299 299 300 301 302 304 304 305 305
Wind_Speed
12 9 9 8 8 8 8 8 8 8 9 10 11 11 12 12 13 13 13 14 13 12 12 12 12 11 10 11 13 15 19 21 22 23 24 26 27 26 25 24 25 26 26 27 29 29 27 26 27 27 28 29 29 27 25 24 23 22 21 21 22 23 24 23 22 20 21 21 20 20 20 20 21 22 22 19 16 14 13 14 14 14 14 13 13
7 6 6 6 7 8 9 10 11 12 13 14 14 14 14 14 14 14 13 14 14 13 12 11 11 10 10 10 12 14 15 15 17 18 18 21 24 27 27 25 26 27 27 27 28 29 28 27 27 27 27 28 28 28 27 25 24 22 21 21 22 25 26 24 23 22 23 22 19 19 21 21 22 23 23 22 20 18 16 16 15 16 16 15 15
6 6 8 8 10 10 11 13 14 16 16 17 17 18 18 18 18 17 15 15 14 14 13 11 12 11 11 11 12 13 13 12 14 17 18 20 22 25 28 28 27 25 25 26 26 26 27 26 25 25 25 26 26 28 28 26 25 24 23 23 23 25 27 26 25 25 24 22 19 20 22 22 22 24 25 24 22 20 19 18 18 18 18 18 17
10 10 11 11 12 13 14 14 15 16 17 17 18 19 20 21 22 22 19 16 14 14 13 12 12 13 13 12 12 12 12 12 13 15 18 19 20 23 27 29 29 25 23 25 25 24 25 25 24 24 24 24 25 27 28 27 26 24 24 24 24 26 29 29 27 26 26 23 20 21 22 21 21 22 23 22 20 20 20 19 19 19 20 20 20
12 13 13 14 15 16 16 17 16 17 18 19 19 19 20 20 22 23 23 20 17 15 14 13 13 14 15 13 12 12 13 13 13 14 15 15 18 22 24 27 28 27 26 26 24 23 24 24 25 24 24 24 25 26 27 28 27 26 25 26 27 28 30 31 29 28 28 26 24 22 21 20 21 21 21 20 19 18 17 17 17 17 18 19 21
12 13 14 15 16 16 16 17 17 18 19 20 21 21 20 20 20 21 22 22 20 17 15 14 13 13 15 15 14 14 14 13 13 12 13 14 16 19 22 24 27 28 27 25 24 24 24 24 25 25 25 25 25 26 27 28 28 28 27 27 29 28 29 31 32 30 28 27 26 26 25 25 24 22 21 20 20 19 18 17 17 16 15 16 18
10 12 13 14 15 16 17 18 19 20 21 21 22 22 21 20 20 21 21 21 21 19 16 15 14 12 13 14 14 15 15 14 13 12 13 14 15 17 20 22 25 28 27 24 24 24 24 24 24 25 26 25 24 25 26 27 28 29 29 30 30 28 27 30 33 32 30 28 28 27 28 29 28 26 25 23 22 22 21 19 19 18 18 20 21
9 10 12 13 14 16 18 19 21 22 22 22 23 23 23 21 21 22 23 21 19 18 17 15 15 13 12 13 14 15 17 16 16 15 14 14 15 17 19 21 23 26 27 26 25 26 26 25 24 25 27 28 27 26 26 26 28 29 31 31 29 27 27 28 30 32 32 31 29 27 28 30 30 30 30 28 26 26 26 24 23 23 23 24 23
7 9 11 12 14 15 17 20 22 24 24 24 24 24 24 23 22 23 25 23 19 17 16 15 16 15 14 14 15 15 17 18 18 17 15 16 17 17 18 20 22 23 25 26 26 27 27 27 26 26 27 29 30 29 27 27 28 29 29 28 26 26 26 26 27 29 31 32 30 28 28 29 30 30 31 30 28 28 28 28 26 25 25 25 24
6 8 10 11 13 15 18 21 24 27 27 23 22 23 24 24 24 24 26 26 22 17 16 15 15 16 15 15 16 16 17 18 19 18 16 16 18 18 18 20 21 22 24 25 26 27 28 28 28 28 28 29 30 30 29 28 28 27 26 25 24 24 25 25 26 27 29 31 31 29 29 29 30 31 31 31 29 28 29 30 28 27 28 28 28
5 7 9 11 13 16 19 22 26 29 27 23 21 23 25 26 26 26 26 27 24 18 15 14 14 16 17 17 17 17 17 18 20 20 16 15 17 17 18 19 21 22 24 25 26 27 27 27 28 29 29 29 30 30 29 28 27 25 24 24 24 25 25 26 27 27 29 31 32 31 32 32 31 32 32 31 30 30 30 31 31 30 30 30 29
5 8 10 12 15 18 21 24 29 30 27 24 24 24 26 28 28 28 27 27 24 17 14 13 12 14 16 18 18 18 17 17 19 19 17 15 16 16 17 19 20 22 24 26 27 27 27 26 26 27 27 28 29 29 28 27 25 24 23 23 24 24 24 24 25 27 29 32 33 33 33 34 33 33 33 32 32 31 30 32 32 30 30 31 30
6 9 11 14 17 20 23 27 30 31 28 27 26 26 28 28 29 28 27 25 22 16 13 12 11 12 15 18 19 19 18 17 17 17 16 15 15 15 16 18 19 20 22 24 25 26 27 25 24 25 24 25 26 27 26 27 26 25 25 24 23 23 23 23 24 26 29 31 32 32 33 34 34 33 32 33 32 31 31 32 31 31 32 33 31
7 9 11 14 18 21 24 28 30 30 28 27 26 27 28 28 27 26 25 23 19 15 13 11 10 10 11 14 17 18 17 16 16 15 14 14 14 13 14 17 19 20 21 23 24 25 24 24 24 24 24 24 25 25 25 26 26 26 26 25 23 21 22 23 24 25 27 30 30 31 32 33 32 32 32 33 33 32 31 32 31 30 32 32 31
7 9 11 15 18 20 23 26 27 28 27 25 25 27 27 26 25 24 24 21 16 14 13 11 8 6 6 7 9 12 13 13 14 14 12 12 13 12 11 13 17 20 21 22 24 24 23 23 23 24 24 24 24 25 25 25 25 25 25 26 24 22 22 23 24 24 25 27 29 31 32 31 30 30 30 31 31 31 31 30 29 29 30 31 32
7 9 11 14 16 18 21 23 25 26 24 23 23 25 26 25 23 22 21 18 15 13 12 10 7 5 4 4 5 6 8 11 14 14 12 12 12 11 10 10 13 17 19 20 23 25 26 26 25 25 24 24 24 26 27 26 25 24 24 26 25 24 24 24 24 25 26 26 28 30 31 31 29 29 29 29 30 30 29 29 29 28 29 31 32
8 9 10 12 15 17 19 21 23 25 23 21 21 24 26 24 21 19 18 17 14 12 12 11 8 6 6 5 5 4 4 6 9 11 11 11 11 11 11 11 11 13 16 17 20 23 26 27 28 28 28 28 27 27 28 28 27 26 26 26 25 25 26 25 25 27 28 28 28 28 30 31 30 29 28 29 29 29 28 28 29 30 30 31 31
8 9 9 11 14 16 17 19 21 23 22 21 21 23 25 24 21 17 16 16 14 12 11 11 9 8 7 7 6 5 5 4 3 4 6 7 10 11 11 12 11 12 13 15 17 22 25 27 29 30 31 30 30 30 30 29 29 28 27 25 24 25 26 26 26 27 28 28 27 27 29 30 30 29 29 29 29 29 28 27 28 28 29 31 31
8 9 9 10 12 15 16 18 21 22 22 20 21 23 25 24 20 16 14 13 14 13 11 10 9 8 8 8 7 7 7 7 7 7 7 6 7 9 11 12 12 12 12 13 15 19 22 25 28 29 30 30 30 31 30 30 30 29 26 22 21 25 26 25 25 27 29 29 27 27 29 29 29 29 28 29 30 30 29 28 27 27 27 29 29
8 8 9 10 12 13 15 17 20 21 21 20 21 22 25 25 21 18 14 11 11 12 10 10 9 8 8 8 8 7 7 8 9 10 9 9 8 8 8 10 11 12 12 12 12 15 19 22 24 25 25 26 28 29 30 30 30 29 26 21 20 24 26 26 26 27 30 30 29 29 30 30 30 30 30 30 31 30 30 30 29 29 28 28 28
8 8 9 10 11 12 14 16 18 20 20 20 21 22 24 25 23 20 17 12 9 10 10 10 10 9 10 10 10 10 9 9 9 10 11 11 10 9 8 8 8 10 12 12 10 12 15 19 22 22 22 22 25 26 27 28 28 27 25 22 20 22 25 27 27 28 30 31 31 32 32 32 32 32 32 33 33 32 31 31 31 30 29 28 28
7 8 9 10 11 11 13 15 17 19 20 21 22 22 24 25 23 21 19 14 10 9 9 10 10 10 10 11 12 12 12 12 11 11 11 12 12 12 10 8 6 7 10 10 9 9 12 15 18 20 20 21 22 24 24 24 23 23 23 22 21 22 23 25 28 30 31 32 33 35 35 35 34 34 34 34 35 35 34 33 32 31 31 29 28
8 8 8 9 10 10 12 14 16 18 20 21 22 22 23 25 23 22 21 17 12 9 8 8 10 11 11 11 12 13 14 15 16 16 15 14 14 14 12 10 6 5 7 8 8 8 10 12 14 16 18 19 20 22 23 23 22 22 22 22 22 22 23 25 27 30 33 35 37 38 38 37 36 36 35 34 35 35 35 35 34 33 32 31 29
8 8 8 9 9 10 11 13 15 18 20 21 22 23 23 24 23 22 21 20 15 11 8 7 8 9 11 12 12 13 14 15 16 18 18 18 16 14 14 13 10 7 6 7 8 8 9 11 12 14 15 15 16 17 18 19 20 20 21 22 22 24 25 27 28 30 32 35 37 39 39 38 36 36 36 35 34 34 35 35 35 34 33 32 31
8 8 8 8 8 9 10 13 15 17 19 21 22 23 23 23 22 20 20 21 19 14 10 9 8 8 10 11 11 12 13 13 13 15 16 19 19 17 16 15 13 11 9 8 9 9 10 11 12 13 13 12 11 11 14 15 15 16 18 19 20 23 26 29 30 31 33 34 36 38 38 36 34 35 35 35 33 33 35 36 35 34 33 32 32
8 7 8 8 8 9 10 12 14 16 18 20 21 22 23 23 20 18 18 20 21 17 13 11 10 9 10 11 11 11 11 11 11 12 12 14 16 17 16 15 14 13 12 11 11 11 12 12 13 14 13 11 9 9 11 13 14 14 16 17 19 21 24 28 30 32 32 32 33 34 35 33 32 33 33 32 31 31 32 34 34 33 32 32 31
7 8 8 8 8 9 10 12 14 16 18 19 21 22 22 22 19 16 16 19 21 20 16 13 12 11 12 12 12 11 11 10 10 11 11 12 12 12 12 13 14 14 13 13 13 13 13 13 14 14 14 12 10 9 10 12 14 15 17 18 19 20 22 25 28 30 29 28 27 28 30 31 30 30 30 29 28 27 28 30 31 31 32 31 31
8 8 8 8 8 9 10 12 14 16 17 19 20 21 21 20 18 15 15 17 19 21 19 15 12 12 11 11 11 11 11 10 9 9 11 12 12 11 11 11 12 13 14 14 14 14 14 13 13 13 14 13 12 11 11 12 14 15 17 18 18 18 20 22 24 27 26 25 26 26 26 27 27 28 28 27 26 25 26 28 29 29 30 31 31
9 8 8 8 8 9 10 12 15 17 18 19 20 21 21 19 17 15 14 16 17 19 19 16 12 11 11 10 10 10 10 9 9 9 10 11 12 12 12 12 12 13 13 14 14 15 15 15 14 13 12 12 12 13 14 15 16 17 17 18 18 17 18 19 21 24 25 25 25 24 24 24 25 26 27 28 28 27 27 28 28 27 28 29 30
9 9 9 9 8 8 10 12 15 17 18 19 20 21 21 19 17 15 14 15 16 17 18 18 14 11 10 10 9 8 8 8 8 9 9 10 11 12 13 13 13 14 14 13 13 14 15 16 15 15 14 14 15 16 17 17 18 19 19 19 19 19 18 18 18 20 23 25 26 26 26 25 24 24 25 27 29 29 29 27 26 26 26 27 28
9 10 10 9 8 8 10 12 15 17 18 19 19 20 20 19 17 15 14 14 14 15 16 17 17 13 10 9 8 8 8 7 7 8 9 10 10 11 12 13 13 13 13 13 13 13 13 13 14 15 17 18 19 19 19 20 20 21 21 21 21 21 21 21 21 21 21 22 22 23 24 25 25 25 25 26 28 29 28 26 25 26 27 27 27
9 10 9 8 7 8 11 12 14 16 17 18 19 19 18 17 16 16 14 13 13 14 14 14 15 15 13 10 9 9 9 9 9 9 10 11 12 12 12 12 12 12 11 11 12 12 12 12 12 14 16 18 19 20 21 21 21 22 22 22 22 23 23 23 23 24 25 25 24 23 23 23 23 24 23 25 29 32 31 29 27 27 27 28 28
9 8 8 7 7 9 11 12 14 16 16 17 18 17 17 16 15 15 14 13 13 12 13 13 12 12 12 12 11 10 10 10 10 11 11 12 13 14 13 12 12 12 12 12 12 11 11 11 11 13 14 16 18 20 21 21 22 22 22 22 23 24 25 24 24 24 26 28 29 29 28 27 27 27 26 27 30 32 32 31 30 30 30 30 30
7 6 6 6 8 9 11 12 14 15 16 16 16 15 14 14 14 13 13 13 13 12 12 12 11 11 11 12 12 12 11 11 11 11 11 12 13 13 13 13 13 13 13 13 12 12 11 11 12 13 14 15 17 19 20 21 23 23 23 23 23 24 24 24 24 24 24 26 28 29 30 30 29 29 29 29 30 31 31 32 33 34 34 33 32
6 5 5 6 7 9 10 12 14 15 15 15 13 12 13 14 12 11 11 11 12 12 12 11 11 11 11 11 12 12 13 13 12 12 12 13 13 13 13 14 15 15 15 15 14 13 12 12 12 13 15 16 16 17 19 20 21 23 24 24 24 24 23 24 24 25 25 25 26 28 30 31 31 30 29 29 30 30 32 33 33 34 35 34 33
4 5 5 6 7 8 10 12 13 14 14 13 11 12 14 13 10 9 10 10 10 10 11 12 13 13 13 13 12 12 12 13 13 13 13 13 13 13 14 15 16 16 16 16 15 14 13 13 12 13 14 16 18 19 20 20 20 22 23 23 23 23 23 24 25 26 26 25 25 26 27 29 30 30 29 28 28 29 30 31 31 31 33 34 35
4 4 4 5 6 7 9 12 12 13 12 11 10 12 12 10 8 9 10 10 10 10 11 13 14 15 15 15 14 13 13 13 13 14 14 14 14 14 15 15 15 16 16 16 16 16 15 15 14 15 15 17 19 21 21 20 21 23 24 24 24 24 24 24 24 25 26 27 26 26 27 27 28 28 27 27 28 29 30 30 29 30 32 34 36
4 4 4 4 6 7 9 10 11 11 10 9 10 12 10 9 9 9 10 10 11 12 14 15 16 16 16 16 15 14 13 13 13 13 14 15 15 16 16 16 16 16 16 16 16 16 16 16 15 16 16 16 17 19 20 21 22 23 24 24 25 25 25 25 25 25 26 26 27 26 26 27 28 28 28 29 29 30 31 30 29 29 30 33 35
5 3 3 4 6 6 7 8 9 10 9 7 9 11 9 9 10 10 10 11 11 13 15 16 16 16 16 16 16 14 13 13 13 13 13 14 14 15 16 16 16 16 16 15 15 14 15 15 15 15 15 15 15 16 17 19 20 20 21 22 23 24 25 26 26 27 27 27 27 27 27 28 29 29 29 29 30 31 32 31 30 30 30 31 31
5 3 3 4 5 5 5 6 7 7 6 6 8 10 9 9 10 10 10 11 12 13 14 14 14 15 15 16 16 16 15 14 14 14 14 15 15 15 15 15 16 16 15 15 15 14 14 14 14 15 15 15 16 16 16 17 18 19 19 20 21 23 24 25 26 26 27 27 27 27 27 28 30 30 31 31 31 32 32 32 31 31 32 31 30
5 4 3 4 4 4 3 4 4 5 4 4 6 8 8 9 10 10 10 11 12 12 12 13 13 13 14 15 15 15 16 15 15 16 16 16 16 16 16 16 16 16 16 15 15 15 15 14 15 15 16 16 17 17 17 17 18 18 19 19 20 21 23 24 25 26 26 27 26 26 26 27 29 31 32 33 33 32 32 33 33 33 33 31 31
7 5 4 4 4 3 3 3 3 3 2 3 4 6 6 8 9 10 10 11 11 11 12 13 13 13 13 14 15 15 15 15 15 16 16 16 16 16 16 16 16 16 16 16 16 16 15 15 15 16 17 17 18 18 18 19 19 19 19 20 20 21 22 23 25 25 26 27 27 27 26 26 27 29 31 32 34 34 34 35 35 35 34 32 31
7 5 4 3 3 3 2 2 2 2 1 1 3 5 5 7 8 9 10 10 11 11 12 13 14 14 14 15 15 16 16 16 16 16 16 16 16 16 16 16 16 17 17 18 18 18 18 18 18 18 18 19 19 20 20 20 20 20 20 21 21 22 23 24 25 26 27 27 28 27 27 27 27 28 29 31 33 34 35 36 36 36 36 35 33
8 6 4 3 3 3 3 2 1 2 1 1 3 4 5 6 7 9 9 9 10 11 12 12 14 15 15 15 16 16 16 16 16 16 16 16 16 16 17 17 17 18 18 19 19 20 20 20 19 19 19 20 20 21 21 21 21 21 22 22 23 24 25 25 26 27 27 28 29 29 29 29 28 29 29 30 31 33 35 36 36 35 36 36 37
8 6 4 3 3 3 3 3 2 2 2 2 2 3 4 4 6 7 7 8 9 10 11 11 12 14 14 15 15 16 16 16 17 17 17 18 18 19 19 19 19 19 20 20 21 21 21 20 20 19 20 20 21 21 21 22 22 22 23 24 25 26 26 27 27 27 27 28 29 29 29 30 30 30 30 30 31 32 33 34 34 34 35 36 37
10 8 5 4 4 4 4 3 2 2 3 3 2 3 3 3 4 5 6 6 7 9 10 10 11 13 13 14 14 15 16 16 17 18 19 19 20 20 21 22 22 22 22 22 23 24 23 22 21 21 21 21 21 22 22 23 24 24 25 27 28 28 28 27 27 27 27 27 28 29 30 31 31 31 31 31 31 31 31 33 32 31 31 32 34
11 9 6 5 5 5 5 3 3 3 3 3 4 3 3 4 4 5 5 5 6 7 9 9 11 12 12 13 14 14 15 16 17 18 18 19 19 20 21 21 22 22 23 24 24 25 25 23 22 22 22 23 23 24 24 26 27 28 29 29 31 32 32 31 30 30 29 29 29 30 31 31 31 31 31 30 29 29 29 30 30 29 28 28 29
12 11 9 7 6 6 5 4 4 4 4 4 5 4 4 4 4 5 5 6 6 7 8 9 10 11 12 13 13 14 14 15 16 17 18 18 19 19 19 20 20 20 21 22 22 23 23 23 22 22 22 22 23 25 27 29 30 32 32 32 33 35 34 33 33 32 31 30 29 29 29 29 30 31 30 30 29 28 27 26 27 27 26 24 24
13 12 10 8 7 7 6 5 5 5 5 5 5 4 4 4 4 4 5 5 7 8 8 9 10 11 12 12 13 14 14 14 15 16 17 18 18 18 18 18 18 18 18 18 19 19 20 21 21 22 22 23 23 24 26 28 29 30 31 32 33 34 34 33 32 31 30 29 28 28 28 28 29 29 30 31 30 29 28 27 26 26 25 24 21
14 13 12 10 9 8 7 6 6 5 5 6 6 4 3 3 4 4 4 5 6 7 9 10 10 11 12 13 14 15 15 15 16 16 17 18 18 17 16 16 16 16 15 15 16 17 18 18 19 20 21 22 23 23 24 25 26 27 28 29 29 30 30 31 31 31 31 31 31 31 31 31 31 30 31 31 31 31 30 29 28 27 26 24 22
15 15 13 12 10 10 9 7 6 5 6 6 6 5 4 3 4 4 3 3 4 6 8 9 10 11 11 13 14 16 16 17 18 18 18 18 18 17 16 15 15 15 14 14 14 15 16 17 18 19 19 20 21 22 23 23 24 24 25 26 27 27 28 28 30 31 32 33 35 35 36 36 36 35 34 33 32 32 31 31 30 29 27 24 23
Wind_Direction
64 65 59 50 38 26 14 1 354 346 343 344 341 340 343 344 343 344 347 347 345 342 336 332 328 320 306 293 290 284 278 278 279 276 271 268 263 258 257 256 253 250 250 248 245 242 240 238 236 232 230 229 230 231 232 233 235 237 239 243 247 247 245 241 237 236 240 248 258 267 275 273 266 262 263 262 260 261 267 273 277 277 275 278 285
67 58 37 21 5 355 348 342 339 336 336 335 332 331 332 331 333 338 342 343 345 347 342 336 333 325 308 301 305 298 290 290 288 280 272 270 267 259 254 254 252 250 250 248 246 245 242 241 242 240 237 235 233 233 232 232 232 233 237 243 248 250 248 241 234 232 235 243 258 270 274 271 264 260 259 259 258 259 261 265 269 272 275 275 277
43 25 12 0 350 343 338 335 337 337 333 327 322 320 319 321 324 328 331 335 337 339 339 335 328 320 310 306 304 297 293 291 280 271 264 261 258 251 246 248 250 250 251 250 247 245 244 244 245 245 245 243 240 237 234 233 232 233 239 244 247 250 249 239 230 230 233 238 251 263 266 266 264 261 260 261 263 264 264 266 269 272 274 272 270
31 22 14 9 3 358 353 348 345 341 334 326 321 316 313 314 318 319 322 326 328 328 328 328 322 313 309 309 306 295 286 283 277 270 262 253 247 244 242 245 246 242 245 250 249 246 245 245 244 244 244 245 245 243 240 238 237 238 243 247 249 249 247 241 232 229 231 232 240 251 256 258 259 261 265 269 269 267 268 272 275 276 275 271 269
33 28 20 15 11 6 2 356 350 348 347 342 335 326 318 314 314 314 315 316 318 319 317 316 314 310 307 303 299 291 282 279 278 274 269 256 242 240 241 243 242 237 240 247 249 247 244 241 241 240 240 242 246 247 246 245 244 245 248 251 252 250 247 244 239 234 232 232 235 241 244 247 253 261 268 273 273 272 275 279 282 286 284 276 273
34 27 20 13 8 4 0 356 354 353 352 349 343 336 329 322 318 314 311 310 310 309 307 306 304 304 306 302 294 287 280 276 275 277 277 267 251 243 239 238 238 238 242 246 247 247 245 241 240 239 238 241 244 246 249 249 249 249 251 253 252 252 249 246 244 241 237 237 238 241 244 248 256 264 268 272 279 280 280 281 284 290 293 286 283
31 22 16 10 7 4 2 1 360 357 352 347 342 339 335 331 329 326 319 311 306 304 300 297 295 293 296 298 292 285 283 279 274 272 270 268 260 247 239 234 234 238 243 246 244 246 247 246 244 240 238 240 241 244 247 250 252 253 254 254 252 252 251 249 247 246 243 241 241 243 246 249 255 261 263 268 276 279 280 281 282 285 289 290 292
25 17 12 10 7 3 2 1 359 355 350 346 342 340 338 336 337 337 332 320 306 299 295 290 289 286 284 287 286 283 284 283 277 271 263 262 261 252 243 234 231 236 242 245 244 244 247 249 249 245 241 240 240 242 244 248 253 255 254 254 252 250 250 252 251 249 248 247 245 245 246 250 255 258 261 263 266 272 276 277 279 282 285 287 291
20 15 11 9 5 0 358 356 355 352 349 347 344 343 341 339 337 336 336 330 315 301 295 290 287 283 278 277 277 276 279 283 284 280 269 260 258 255 249 239 233 234 238 243 245 246 247 248 249 250 248 246 245 245 247 249 251 253 253 253 252 251 252 255 255 251 251 251 250 249 248 250 254 257 258 258 259 264 271 274 277 280 281 283 288
14 12 10 5 0 357 353 352 352 351 350 349 348 346 343 341 337 333 334 334 327 311 301 296 289 283 277 272 271 269 270 277 282 285 279 265 259 257 254 249 242 238 237 241 246 248 249 249 250 252 253 252 250 248 249 250 251 252 253 252 252 251 250 251 251 250 250 252 253 253 252 250 252 255 256 256 258 261 267 272 275 277 280 284 288
7 9 6 358 355 353 352 352 351 351 353 354 351 349 346 343 339 334 332 334 332 320 308 303 295 287 280 272 270 267 267 273 277 283 284 273 265 262 259 257 252 246 242 243 246 249 249 250 251 253 254 253 250 248 249 251 253 252 253 254 251 249 247 247 248 247 247 248 249 252 255 255 255 257 259 261 262 263 267 272 275 278 282 285 289
359 4 359 353 352 352 352 353 352 353 356 356 353 349 347 345 342 338 336 336 336 329 318 312 303 294 285 276 271 267 267 271 274 280 286 282 273 267 263 261 258 252 248 246 247 249 250 251 252 253 253 253 251 250 250 252 257 258 257 257 255 252 251 251 252 251 250 248 247 249 255 259 260 261 262 263 264 266 269 272 275 279 280 283 287
355 359 353 350 352 352 353 353 354 356 357 356 353 349 348 346 342 339 340 341 341 336 329 322 313 303 290 281 276 270 267 269 274 280 287 287 281 273 266 264 262 259 255 253 251 251 253 251 249 249 251 252 254 257 255 253 258 262 261 261 261 257 251 250 252 253 252 251 249 250 252 257 261 262 263 263 265 267 268 269 273 276 277 280 284
350 353 350 350 352 352 352 353 355 357 357 355 354 351 348 344 341 340 342 345 344 339 337 332 321 307 294 288 281 274 268 266 270 279 285 286 284 280 271 265 265 265 262 259 255 253 254 253 250 249 250 254 257 259 258 257 261 264 263 264 265 260 252 250 253 253 252 251 251 251 251 254 259 262 263 263 264 265 265 268 272 273 274 277 280
345 346 346 349 350 350 351 353 356 357 356 354 353 351 348 344 342 342 344 345 343 343 346 342 332 316 305 304 293 280 272 264 265 274 280 280 282 285 281 270 265 265 264 264 261 257 255 254 254 254 256 258 259 257 255 256 263 266 263 262 263 261 256 254 255 256 256 254 252 253 253 253 255 258 261 262 263 265 266 268 270 269 270 274 278
340 338 339 345 345 347 351 354 356 357 355 352 351 352 351 346 342 343 346 343 338 344 353 354 352 349 342 346 332 300 278 266 264 270 274 276 280 287 290 280 270 267 268 267 263 260 257 256 257 257 259 261 262 259 256 255 259 264 263 260 261 263 263 261 260 259 260 258 256 255 256 256 255 256 261 264 266 267 268 269 267 265 267 271 276
332 326 328 338 340 345 352 356 355 355 353 349 349 352 353 348 343 345 349 345 338 339 352 2 12 8 359 10 20 1 312 274 266 272 279 278 282 287 288 286 280 275 272 265 257 255 257 259 258 255 255 258 261 262 261 260 260 262 262 258 257 262 266 267 266 264 263 263 261 260 259 260 259 258 262 267 270 271 271 269 268 266 266 267 270
318 314 317 327 338 345 352 355 354 353 350 347 346 349 352 349 343 346 350 350 347 341 343 358 13 14 7 11 21 25 23 13 343 322 313 295 287 283 282 286 285 279 275 266 257 253 253 257 258 256 254 256 258 259 260 262 264 263 264 263 259 262 267 270 270 269 268 267 266 265 263 262 262 262 264 268 270 272 271 270 269 268 266 264 265
299 299 305 318 337 346 351 352 353 353 350 345 343 344 349 350 345 346 349 351 355 349 340 344 356 9 13 11 13 14 11 10 10 9 6 349 319 294 283 281 281 282 278 271 264 257 252 253 256 256 254 253 253 253 255 260 264 265 267 267 260 258 261 264 266 264 265 267 269 269 267 266 265 266 267 269 270 270 271 270 269 268 265 264 264
286 287 295 316 337 345 349 350 350 353 350 344 341 341 347 350 348 347 348 348 356 355 347 341 339 344 350 353 358 2 4 2 357 354 354 354 349 335 311 290 281 281 278 273 270 263 256 252 251 252 252 249 248 248 251 257 264 267 267 265 260 256 257 260 261 258 258 263 268 270 270 269 268 268 268 269 270 270 270 270 270 270 268 265 265
284 283 293 317 337 343 346 346 348 351 349 344 341 341 346 349 348 349 349 347 352 355 352 349 341 332 328 328 331 335 342 348 351 349 345 342 339 338 338 323 297 282 277 275 274 269 260 251 246 245 245 245 246 247 250 255 261 265 266 265 262 259 258 258 260 259 259 263 267 270 271 269 269 270 270 270 270 270 270 270 269 269 268 267 265
282 280 296 319 334 338 339 342 346 347 346 345 342 340 345 349 348 348 349 345 346 351 349 347 344 335 326 321 320 320 321 322 325 330 334 338 334 328 329 334 323 298 285 281 274 265 257 250 243 239 238 239 243 247 249 251 255 259 262 263 261 260 259 257 257 257 258 261 267 271 272 270 269 270 270 269 270 270 269 268 269 269 268 267 265
273 277 299 319 328 330 333 339 342 343 344 344 342 341 344 348 347 347 349 347 340 340 343 340 338 336 331 326 320 314 312 311 311 312 314 322 329 327 319 314 316 313 301 291 279 262 255 254 250 244 240 239 240 243 246 249 251 253 256 258 258 257 256 256 256 256 257 260 265 269 271 270 270 270 270 269 270 270 268 266 267 268 270 269 266
263 278 304 315 317 321 329 334 337 340 342 342 342 341 342 347 347 345 349 349 342 333 331 331 332 332 331 330 324 318 313 309 306 304 303 305 313 322 320 309 298 293 291 289 285 273 262 260 259 256 254 252 250 250 253 257 257 256 258 258 257 256 254 253 253 254 256 258 262 266 268 269 269 269 270 271 270 269 267 265 265 267 270 271 269
258 282 304 308 307 313 323 329 332 337 340 340 341 340 340 345 346 344 346 349 347 338 326 322 326 326 327 329 329 328 324 318 311 302 296 293 293 300 309 307 295 284 274 271 277 278 272 267 264 265 265 265 268 266 263 266 268 267 267 265 263 261 259 256 253 252 254 256 260 263 265 267 268 268 269 271 271 269 266 264 264 264 268 273 272
259 286 299 300 301 307 317 324 329 334 338 339 338 338 340 344 345 344 343 346 350 348 335 321 317 314 316 320 325 328 329 331 330 320 307 298 291 290 296 298 293 285 274 264 265 269 272 272 271 271 270 269 276 279 275 275 276 275 274 272 269 267 264 260 257 255 256 259 262 263 263 265 266 265 266 268 269 269 266 263 263 264 269 273 272
261 282 296 299 298 302 311 320 328 333 336 337 336 339 343 346 346 344 342 344 351 354 347 331 319 313 310 309 312 316 319 325 331 331 325 318 310 301 296 295 293 289 282 272 266 264 265 268 272 274 273 270 270 276 280 280 280 280 278 274 272 271 269 266 261 259 260 263 266 266 264 265 264 263 264 265 266 268 267 263 263 267 270 270 268
259 279 295 296 289 295 309 321 328 332 334 334 337 341 346 348 345 344 344 347 352 355 353 345 333 327 320 311 308 308 311 313 314 318 318 314 311 306 300 298 296 293 288 281 275 272 270 268 269 271 274 276 277 278 280 280 280 281 281 280 278 277 277 275 269 264 263 265 268 270 269 267 264 262 263 264 264 264 262 260 261 264 266 266 265
254 275 288 283 279 294 312 325 330 331 332 335 339 344 347 347 345 345 348 351 353 354 354 352 348 348 345 337 326 317 315 314 308 305 306 306 305 305 305 304 301 299 295 286 279 276 275 274 274 275 277 280 282 281 280 279 277 276 276 277 277 277 280 284 281 272 267 264 265 267 268 268 267 266 268 269 266 261 257 256 258 262 263 263 264
251 271 279 273 277 299 319 328 331 331 332 337 341 344 346 345 345 347 349 351 353 353 353 354 357 1 360 354 348 337 326 316 312 310 309 309 310 310 312 314 312 309 305 298 290 280 276 275 275 276 277 277 276 275 274 274 275 276 276 276 275 271 268 272 278 278 274 271 269 268 270 271 271 270 270 268 265 263 262 260 259 261 262 260 261
258 276 276 271 281 306 323 329 332 332 334 338 341 344 345 343 344 348 349 349 350 351 352 354 358 360 359 355 351 346 337 326 324 322 318 318 319 320 322 322 319 315 311 309 306 298 289 283 277 274 272 272 272 274 275 278 280 283 284 285 284 280 273 267 265 267 271 274 274 274 275 277 278 277 275 272 271 271 272 270 265 263 264 261 260
268 278 272 270 287 313 326 331 333 334 334 337 340 342 344 347 348 347 347 344 345 348 351 352 356 359 359 356 349 341 334 329 329 331 329 328 328 329 330 328 325 323 323 321 316 311 308 303 295 286 279 277 276 275 277 279 282 285 287 288 288 288 286 280 272 267 266 268 268 268 268 270 274 277 277 277 277 277 276 275 271 268 266 264 261
271 270 264 275 299 320 329 333 334 334 333 335 338 340 345 352 352 345 342 341 340 344 348 349 353 357 360 1 357 348 337 330 329 332 333 332 332 335 337 339 340 339 337 332 326 322 320 315 310 304 298 293 290 288 288 287 287 288 290 290 289 288 288 288 285 279 274 271 270 269 269 268 268 268 269 271 274 277 278 279 276 272 268 265 263
262 260 264 286 309 324 330 333 334 332 332 334 335 339 345 352 351 344 340 340 339 341 345 347 350 354 358 2 3 2 358 351 345 340 337 337 338 340 342 343 343 342 340 340 339 337 332 324 318 315 311 307 302 299 298 296 294 294 294 294 293 291 289 288 287 286 282 279 276 275 275 274 273 272 271 270 271 274 276 277 277 274 271 267 263
254 263 277 298 316 327 331 332 332 331 333 334 334 340 347 347 348 348 345 343 342 342 344 350 354 356 357 359 360 1 2 1 358 352 346 342 340 340 341 340 340 339 339 342 343 343 342 336 328 322 317 315 313 309 306 303 300 298 297 296 296 295 294 292 289 288 286 284 282 279 278 277 276 276 275 273 271 272 272 273 275 276 276 276 272
254 271 290 311 323 330 333 332 332 333 334 334 337 347 350 348 349 353 355 355 351 349 353 0 4 3 2 3 1 358 356 356 356 354 350 346 342 339 340 340 339 338 338 337 336 336 338 338 333 328 323 320 317 315 314 312 309 306 304 304 303 300 298 296 295 294 293 292 291 288 286 283 281 279 280 279 277 275 274 274 274 273 273 276 279
251 276 304 322 328 332 335 333 332 334 334 337 348 354 355 356 359 0 3 4 4 8 13 14 13 11 9 7 5 1 356 352 351 351 349 349 348 345 344 344 343 343 342 340 337 334 333 331 328 325 321 318 315 313 313 314 313 311 309 308 307 306 303 300 299 298 298 299 299 297 295 293 291 288 285 284 281 279 277 275 275 273 269 268 271
250 278 310 326 330 332 335 332 329 332 335 343 355 358 358 4 8 7 6 8 12 18 20 17 16 17 16 14 13 9 3 357 352 351 350 350 350 348 347 347 346 346 346 346 345 341 337 334 331 328 325 322 318 315 314 314 312 309 307 305 303 302 300 299 297 296 296 296 297 296 295 294 294 293 291 288 285 283 281 278 275 273 271 269 268
246 274 311 327 332 332 331 330 326 327 334 349 357 357 0 6 9 10 10 13 20 21 18 15 14 16 18 20 21 19 15 8 1 356 353 350 350 348 346 345 344 343 345 348 348 346 342 339 337 336 334 333 330 327 323 321 318 316 314 310 306 302 300 298 296 294 292 291 290 290 289 290 290 291 291 290 288 287 285 282 278 273 269 269 268
242 258 292 315 327 328 324 323 320 320 330 346 351 352 358 6 10 12 13 19 23 19 16 14 11 10 13 16 19 21 20 16 11 6 1 356 353 349 345 342 340 340 341 342 343 343 343 341 339 338 337 337 337 337 335 331 328 326 324 321 317 312 308 305 304 301 299 295 292 289 286 285 284 285 286 287 288 288 287 285 281 277 272 269 267
237 247 280 308 321 322 312 306 311 320 325 334 346 352 359 6 9 11 16 21 18 11 9 9 4 3 5 7 11 14 14 14 13 11 8 4 359 355 350 345 341 339 337 336 337 338 339 341 340 340 340 340 340 340 339 337 335 333 332 329 325 321 317 314 312 311 309 308 305 301 296 291 286 284 282 282 283 284 284 284 283 282 279 275 270
224 232 262 298 308 305 297 298 318 336 331 334 349 357 5 10 8 10 16 18 12 6 6 4 359 358 1 3 5 6 6 7 7 6 6 5 1 359 355 351 347 343 340 338 338 338 338 340 341 341 342 342 342 341 340 340 339 339 338 336 332 329 325 321 317 315 314 313 312 310 307 302 297 292 288 285 283 281 280 280 282 284 285 283 277
223 231 253 285 297 292 290 309 340 359 355 3 7 5 12 16 13 15 18 15 8 5 3 359 357 359 2 4 5 5 4 4 4 4 4 2 359 357 355 351 348 344 341 339 338 338 337 336 337 339 341 341 340 340 340 340 340 340 340 339 337 333 330 327 325 322 320 317 315 312 310 306 302 298 295 292 290 287 283 281 280 280 281 282 281
223 232 249 275 285 282 289 308 346 9 3 26 23 11 12 16 16 19 19 14 9 6 1 357 357 359 1 3 4 4 4 4 5 5 4 2 1 359 356 354 351 348 345 344 343 343 342 341 341 342 344 344 344 343 343 343 342 341 341 341 339 337 333 331 330 328 325 322 320 317 314 311 306 302 298 295 293 292 290 288 284 280 276 276 277
226 231 242 262 271 272 282 298 323 347 345 354 13 7 7 14 22 25 21 14 12 9 3 360 359 0 1 1 1 1 0 1 1 359 359 360 0 360 359 359 358 355 354 353 353 354 354 354 355 354 353 353 352 351 351 351 349 348 348 348 347 344 340 337 334 333 330 327 324 321 318 316 312 308 303 298 293 291 290 291 290 286 280 275 274
222 227 236 245 252 258 265 279 300 312 318 322 327 343 359 10 24 31 24 15 12 9 4 1 1 1 1 1 1 0 359 359 359 358 357 357 356 357 358 358 358 359 360 360 0 2 3 5 7 7 5 4 2 1 0 360 359 358 357 357 355 352 349 345 341 339 336 332 329 327 324 321 319 316 312 307 301 294 291 290 291 291 287 280 275
224 229 234 234 239 250 253 258 270 280 294 300 297 311 341 358 16 27 23 14 9 6 4 2 2 4 4 3 3 3 1 360 359 358 358 357 356 355 355 356 357 359 360 1 3 5 7 10 12 12 11 10 10 9 8 6 5 5 4 4 3 1 358 354 351 349 347 343 339 336 332 328 325 322 319 316 311 305 298 293 291 291 290 284 278
222 224 228 229 232 240 243 246 253 261 274 281 279 293 320 341 2 11 10 6 1 358 1 6 8 8 7 5 5 5 3 1 360 358 357 357 357 356 354 355 357 358 359 1 3 4 6 10 12 11 11 11 11 10 9 8 7 6 5 6 6 5 3 2 1 359 357 353 348 343 338 334 330 327 325 323 320 316 311 305 300 297 294 289 282
224 226 228 227 227 232 236 238 241 247 258 265 269 281 301 322 346 357 358 356 351 350 357 6 10 10 8 7 7 6 6 4 2 2 1 360 359 358 355 354 355 356 357 359 0 1 2 5 7 7 6 6 7 7 6 5 4 4 5 5 5 4 4 5 6 5 4 2 360 356 351 346 341 338 336 334 331 328 324 319 314 309 304 300 293
226 228 228 224 223 228 231 231 233 238 245 253 258 265 278 299 321 336 344 346 346 348 354 1 6 7 6 5 4 4 4 3 3 3 4 4 3 1 357 353 351 351 352 352 353 355 354 354 357 359 359 359 359 359 359 357 357 359 1 3 3 1 1 4 6 6 7 10 12 12 9 5 0 355 350 346 343 340 336 331 327 324 320 313 305
225 226 228 224 220 222 226 228 231 233 235 241 248 254 262 281 301 316 327 334 343 349 351 355 358 360 1 2 1 0 359 358 357 358 359 1 2 2 0 355 349 345 343 342 344 345 344 343 343 344 346 348 347 347 348 348 348 350 353 357 359 358 358 1 4 5 8 12 15 18 18 16 14 10 5 359 355 350 346 342 336 332 329 323 313